To NAV CANADA Home Page Login to a new session Search on AWWS site Feedback and Comments Disclaimer Vers la page française équivalente Tips FAQ What's new on the site To the Forecasts and Observations / NOTAM section To "File a Flight Plan" website Publications and other links Update of the User's profile FIC Telephone Numbers My Weather Data Folder Route Weather Data Regional Weather Data Local Weather Data To the Forecasts and Observations / NOTAM section
Request Generated 01/21/2017 at 02:05:14 UTC . Weather information available at that time is displayed.

METAR/TAF

NAIN/NL    

LWIS CYDP 210200Z AUTO VRB02KT M09/M11 A2987=
LWIS CYDP 210100Z AUTO 20004KT M09/M11 A2987=
METAR CYDP 210000Z VRB02KT 8SM -SN OVC023 M09/M11 A2988 RMK SC8 LAST
STAFFED OB/ NEXT 210900 SLP119=

*** REMARK        : Forecast period has ended; this was the last TAF issued
*** REMARQUE : La période de prévision est échue; ceci était le dernier TAF qui a été émis
TAF CYDP 201938Z 2020/2024 VRB03KT 5SM -SN OVC020 TEMPO 2020/2024
P6SM NSW OVC025
RMK NXT FCST WILL BE ISSUED AT 211045Z=
Your time UTC time
Weather data provided by Environment Canada and NAV CANADA